NOAA 16 DEB, 42335

Orbit data source: Space-Track

NOAA 16 DEB, 42335 is space debris in SSO originally from a launch on Thu, 21 Sep 2000 UTC launched from the Air Force Western Test Range (AFWTR). Debris objects in space refer to the collection of defunct objects orbiting the Earth. Examples of debris include non-operational satellites, rocket bodies, and fragments generated from explosions, collisions, or faulty payload assembly.

Loading next visibility...
Identifier
42335, 2000-055QB
Orbit
SSO
Country
Flag of USUS
Related business
Manufacturer
Unknown
Mission
Spacecraft
Bus & Motor
Unknown
Mass
Unknown
Launch date (UTC)
2000-09-21 (26 years ago)
Launch vehicle
Unknown
Launch site
Air Force Western Test Range (AFWTR)
Object type
Payload
Rocket body
Debris
Shape & HBR
Unknown shape, 0.1 m
Radar Cross Section
Medium (>0.1 m² and <1 m²)

Expand to show TLE details & history
Last TLE update: 2 days ago

TLE from 2 days ago
0 NOAA 16 DEB
1 42335U 00055QB  26252.38096944  .00002562  00000-0  88389-3 0  9991
2 42335  98.5559 310.7455 0021844 302.4521  57.4552 14.36582866545293
Epoch: 2026-09-09T09:08Z
TLE epoch observation values (Epoch: 2026-09-09T09:08:35.759Z)
Latitude
-0.00011°
Longitude
-174.83733°
Altitude
764.376 km
Speed
7.476 km/s
True Right ascension
20h 42m 58s
True Declination
0° 00' 00"
Sunlit
Object was in full shadow at epoch
Visualization orbit readout
Latitude
Unknown
Longitude
Unknown
Altitude
Unknown
Speed
Unknown
Apparent Right ascension
Unknown
Apparent Declination
Unknown
Sunlit
N/A
Visualization observer readout
Local Sidereal Time
17:57:10
Azimuth
Unknown
Elevation
Unknown
Doppler factor
Unknown
Orbital elements
Apogee altitude
782.548 km
Perigee altitude
751.332 km
Semi-major axis
7,145.077 km
Eccentricity
0.00218
Inclination
98.5559°
RAAN
310.7455°
Arg. of periapsis
302.4521°
True anomaly
57.66652°
Mean anomaly
57.4552°
Eccentric anomaly
57.56083°
Mean motion
3.59363 °/min
Orbital period
100.18 mins
BSTAR
0.00088389
Loading maneuver chart data...
Computing Atmospheric mass density...
Loading historical data...
Loading historical data...
Loading historical data...
Loading historical data...
Loading historical data...
Loading historical data...
Loading historical data...

Documentation

Showing up to 5 results
|